owner,sensor,date,latitude,longitude,air_temperature,qcFlag 
COMPS,ioos:station:USF.COMPS:EGK:1,2010-03-01T00:00:00Z,27.6010,-82.7510,12.31,1111122 
COMPS,ioos:station:USF.COMPS:EGK:1,2010-03-01T00:06:00Z,27.6010,-82.7510,12.3,1111122 
COMPS,ioos:station:USF.COMPS:EGK:1,2010-03-01T00:12:00Z,27.6010,-82.7510,12.24,1111122 
COMPS,ioos:station:USF.COMPS:EGK:1,2010-03-01T00:18:00Z,27.6010,-82.7510,12.27,1111122 
COMPS,ioos:station:USF.COMPS:EGK:1,2010-03-01T00:24:00Z,27.6010,-82.7510,12.35,1111122 
COMPS,ioos:station:USF.COMPS:EGK:1,2010-03-01T00:30:00Z,27.6010,-82.7510,12.35,1111122 
COMPS,ioos:station:USF.COMPS:EGK:1,2010-03-01T00:36:00Z,27.6010,-82.7510,12.36,1111122 
COMPS,ioos:station:USF.COMPS:EGK:1,2010-03-01T00:42:00Z,27.6010,-82.7510,12.3,1111122 
COMPS,ioos:station:USF.COMPS:EGK:1,2010-03-01T00:48:00Z,27.6010,-82.7510,12.35,1111122 
COMPS,ioos:station:USF.COMPS:EGK:1,2010-03-01T00:54:00Z,27.6010,-82.7510,12.34,1111122 
COMPS,ioos:station:USF.COMPS:EGK:1,2010-03-01T01:00:00Z,27.6010,-82.7510,12.38,1111122 
COMPS,ioos:station:USF.COMPS:EGK:1,2010-03-01T01:06:00Z,27.6010,-82.7510,12.36,1111122 
COMPS,ioos:station:USF.COMPS:EGK:1,2010-03-01T01:12:00Z,27.6010,-82.7510,12.37,1111122 
COMPS,ioos:station:USF.COMPS:EGK:1,2010-03-01T01:18:00Z,27.6010,-82.7510,12.29,1111122 
COMPS,ioos:station:USF.COMPS:EGK:1,2010-03-01T01:24:00Z,27.6010,-82.7510,12.39,1111122 
COMPS,ioos:station:USF.COMPS:EGK:1,2010-03-01T01:30:00Z,27.6010,-82.7510,12.46,1111122 
COMPS,ioos:station:USF.COMPS:EGK:1,2010-03-01T01:36:00Z,27.6010,-82.7510,12.47,1111122 
COMPS,ioos:station:USF.COMPS:EGK:1,2010-03-01T01:42:00Z,27.6010,-82.7510,12.51,1111122 
COMPS,ioos:station:USF.COMPS:EGK:1,2010-03-01T01:48:00Z,27.6010,-82.7510,12.51,1111122 
COMPS,ioos:station:USF.COMPS:EGK:1,2010-03-01T01:54:00Z,27.6010,-82.7510,12.56,1111122 
COMPS,ioos:station:USF.COMPS:EGK:1,2010-03-01T02:00:00Z,27.6010,-82.7510,12.44,1111122 
COMPS,ioos:station:USF.COMPS:EGK:1,2010-03-01T02:06:00Z,27.6010,-82.7510,12.44,1111122 
COMPS,ioos:station:USF.COMPS:EGK:1,2010-03-01T02:12:00Z,27.6010,-82.7510,12.46,1111122 
COMPS,ioos:station:USF.COMPS:EGK:1,2010-03-01T02:18:00Z,27.6010,-82.7510,12.43,1111122 
COMPS,ioos:station:USF.COMPS:EGK:1,2010-03-01T02:24:00Z,27.6010,-82.7510,12.42,1111122 
COMPS,ioos:station:USF.COMPS:EGK:1,2010-03-01T02:30:00Z,27.6010,-82.7510,12.45,1111122 
COMPS,ioos:station:USF.COMPS:EGK:1,2010-03-01T02:36:00Z,27.6010,-82.7510,12.49,1111122 
COMPS,ioos:station:USF.COMPS:EGK:1,2010-03-01T02:42:00Z,27.6010,-82.7510,12.51,1111122 
COMPS,ioos:station:USF.COMPS:EGK:1,2010-03-01T02:48:00Z,27.6010,-82.7510,12.57,1111122 
COMPS,ioos:station:USF.COMPS:EGK:1,2010-03-01T02:54:00Z,27.6010,-82.7510,12.62,1111122 
COMPS,ioos:station:USF.COMPS:EGK:1,2010-03-01T03:00:00Z,27.6010,-82.7510,12.55,1111122 
COMPS,ioos:station:USF.COMPS:EGK:1,2010-03-01T03:06:00Z,27.6010,-82.7510,12.53,1111122 
COMPS,ioos:station:USF.COMPS:EGK:1,2010-03-01T03:12:00Z,27.6010,-82.7510,12.63,1111122 
COMPS,ioos:station:USF.COMPS:EGK:1,2010-03-01T03:18:00Z,27.6010,-82.7510,12.65,1111122 
COMPS,ioos:station:USF.COMPS:EGK:1,2010-03-01T03:24:00Z,27.6010,-82.7510,12.65,1111122 
COMPS,ioos:station:USF.COMPS:EGK:1,2010-03-01T03:30:00Z,27.6010,-82.7510,12.59,1111122 
COMPS,ioos:station:USF.COMPS:EGK:1,2010-03-01T03:36:00Z,27.6010,-82.7510,12.6,1111122 
COMPS,ioos:station:USF.COMPS:EGK:1,2010-03-01T03:42:00Z,27.6010,-82.7510,12.63,1111122 
COMPS,ioos:station:USF.COMPS:EGK:1,2010-03-01T03:48:00Z,27.6010,-82.7510,12.63,1111122 
COMPS,ioos:station:USF.COMPS:EGK:1,2010-03-01T03:54:00Z,27.6010,-82.7510,12.59,1111122 
COMPS,ioos:station:USF.COMPS:EGK:1,2010-03-01T04:00:00Z,27.6010,-82.7510,12.57,1111122 
COMPS,ioos:station:USF.COMPS:EGK:1,2010-03-01T04:06:00Z,27.6010,-82.7510,12.57,1111122 
COMPS,ioos:station:USF.COMPS:EGK:1,2010-03-01T04:12:00Z,27.6010,-82.7510,12.53,1111122 
COMPS,ioos:station:USF.COMPS:EGK:1,2010-03-01T04:18:00Z,27.6010,-82.7510,12.53,1111122 
COMPS,ioos:station:USF.COMPS:EGK:1,2010-03-01T04:24:00Z,27.6010,-82.7510,12.49,1111122 
COMPS,ioos:station:USF.COMPS:EGK:1,2010-03-01T04:30:00Z,27.6010,-82.7510,12.53,1111122 
COMPS,ioos:station:USF.COMPS:EGK:1,2010-03-01T04:36:00Z,27.6010,-82.7510,12.41,1111122 
COMPS,ioos:station:USF.COMPS:EGK:1,2010-03-01T04:42:00Z,27.6010,-82.7510,12.3,1111122 
COMPS,ioos:station:USF.COMPS:EGK:1,2010-03-01T04:48:00Z,27.6010,-82.7510,12.28,1111122 
COMPS,ioos:station:USF.COMPS:EGK:1,2010-03-01T04:54:00Z,27.6010,-82.7510,12.43,1111122 
COMPS,ioos:station:USF.COMPS:EGK:1,2010-03-01T05:00:00Z,27.6010,-82.7510,12.25,1111122 
COMPS,ioos:station:USF.COMPS:EGK:1,2010-03-01T05:06:00Z,27.6010,-82.7510,12.15,1111122 
COMPS,ioos:station:USF.COMPS:EGK:1,2010-03-01T05:12:00Z,27.6010,-82.7510,12.03,1111122 
COMPS,ioos:station:USF.COMPS:EGK:1,2010-03-01T05:18:00Z,27.6010,-82.7510,11.98,1111122 
COMPS,ioos:station:USF.COMPS:EGK:1,2010-03-01T05:24:00Z,27.6010,-82.7510,11.98,1111122 
COMPS,ioos:station:USF.COMPS:EGK:1,2010-03-01T05:30:00Z,27.6010,-82.7510,11.98,1111122 
COMPS,ioos:station:USF.COMPS:EGK:1,2010-03-01T05:36:00Z,27.6010,-82.7510,11.98,1111122 
COMPS,ioos:station:USF.COMPS:EGK:1,2010-03-01T05:42:00Z,27.6010,-82.7510,11.97,1111122 
COMPS,ioos:station:USF.COMPS:EGK:1,2010-03-01T05:48:00Z,27.6010,-82.7510,11.97,1111122 
COMPS,ioos:station:USF.COMPS:EGK:1,2010-03-01T05:54:00Z,27.6010,-82.7510,12.03,1111122 
COMPS,ioos:station:USF.COMPS:EGK:1,2010-03-01T06:00:00Z,27.6010,-82.7510,11.89,1111122 
COMPS,ioos:station:USF.COMPS:EGK:1,2010-03-01T06:06:00Z,27.6010,-82.7510,11.92,1111122 
COMPS,ioos:station:USF.COMPS:EGK:1,2010-03-01T06:12:00Z,27.6010,-82.7510,12.11,1111122 
COMPS,ioos:station:USF.COMPS:EGK:1,2010-03-01T06:18:00Z,27.6010,-82.7510,12.1,1111122 
COMPS,ioos:station:USF.COMPS:EGK:1,2010-03-01T06:24:00Z,27.6010,-82.7510,12.04,1111122 
COMPS,ioos:station:USF.COMPS:EGK:1,2010-03-01T06:30:00Z,27.6010,-82.7510,11.98,1111122 
COMPS,ioos:station:USF.COMPS:EGK:1,2010-03-01T06:36:00Z,27.6010,-82.7510,11.91,1111122 
COMPS,ioos:station:USF.COMPS:EGK:1,2010-03-01T06:42:00Z,27.6010,-82.7510,11.9,1111122 
COMPS,ioos:station:USF.COMPS:EGK:1,2010-03-01T06:48:00Z,27.6010,-82.7510,12.01,1111122 
COMPS,ioos:station:USF.COMPS:EGK:1,2010-03-01T06:54:00Z,27.6010,-82.7510,12.05,1111122 
COMPS,ioos:station:USF.COMPS:EGK:1,2010-03-01T07:00:00Z,27.6010,-82.7510,12.02,1111122 
COMPS,ioos:station:USF.COMPS:EGK:1,2010-03-01T07:06:00Z,27.6010,-82.7510,12.0,1111122 
COMPS,ioos:station:USF.COMPS:EGK:1,2010-03-01T07:12:00Z,27.6010,-82.7510,11.99,1111122 
COMPS,ioos:station:USF.COMPS:EGK:1,2010-03-01T07:18:00Z,27.6010,-82.7510,11.98,1111122 
COMPS,ioos:station:USF.COMPS:EGK:1,2010-03-01T07:24:00Z,27.6010,-82.7510,11.98,1111122 
COMPS,ioos:station:USF.COMPS:EGK:1,2010-03-01T07:30:00Z,27.6010,-82.7510,11.92,1111122 
COMPS,ioos:station:USF.COMPS:EGK:1,2010-03-01T07:36:00Z,27.6010,-82.7510,11.99,1111122 
COMPS,ioos:station:USF.COMPS:EGK:1,2010-03-01T07:42:00Z,27.6010,-82.7510,11.98,1111122 
COMPS,ioos:station:USF.COMPS:EGK:1,2010-03-01T07:48:00Z,27.6010,-82.7510,11.85,1111122 
COMPS,ioos:station:USF.COMPS:EGK:1,2010-03-01T07:54:00Z,27.6010,-82.7510,11.86,1111122 
COMPS,ioos:station:USF.COMPS:EGK:1,2010-03-01T08:00:00Z,27.6010,-82.7510,11.71,1111122 
COMPS,ioos:station:USF.COMPS:EGK:1,2010-03-01T08:06:00Z,27.6010,-82.7510,11.71,1111122 
COMPS,ioos:station:USF.COMPS:EGK:1,2010-03-01T08:12:00Z,27.6010,-82.7510,11.75,1111122 
COMPS,ioos:station:USF.COMPS:EGK:1,2010-03-01T08:18:00Z,27.6010,-82.7510,11.85,1111122 
COMPS,ioos:station:USF.COMPS:EGK:1,2010-03-01T08:24:00Z,27.6010,-82.7510,11.73,1111122 
COMPS,ioos:station:USF.COMPS:EGK:1,2010-03-01T08:30:00Z,27.6010,-82.7510,11.7,1111122 
COMPS,ioos:station:USF.COMPS:EGK:1,2010-03-01T08:36:00Z,27.6010,-82.7510,11.74,1111122 
COMPS,ioos:station:USF.COMPS:EGK:1,2010-03-01T08:42:00Z,27.6010,-82.7510,11.71,1111122 
COMPS,ioos:station:USF.COMPS:EGK:1,2010-03-01T08:48:00Z,27.6010,-82.7510,11.57,1111122 
COMPS,ioos:station:USF.COMPS:EGK:1,2010-03-01T08:54:00Z,27.6010,-82.7510,11.36,1111122 
COMPS,ioos:station:USF.COMPS:EGK:1,2010-03-01T09:00:00Z,27.6010,-82.7510,11.43,1111122 
COMPS,ioos:station:USF.COMPS:EGK:1,2010-03-01T09:06:00Z,27.6010,-82.7510,11.4,1111122 
COMPS,ioos:station:USF.COMPS:EGK:1,2010-03-01T09:12:00Z,27.6010,-82.7510,11.44,1111122 
COMPS,ioos:station:USF.COMPS:EGK:1,2010-03-01T09:18:00Z,27.6010,-82.7510,11.45,1111122 
COMPS,ioos:station:USF.COMPS:EGK:1,2010-03-01T09:24:00Z,27.6010,-82.7510,11.54,1111122 
COMPS,ioos:station:USF.COMPS:EGK:1,2010-03-01T09:30:00Z,27.6010,-82.7510,11.62,1111122 
COMPS,ioos:station:USF.COMPS:EGK:1,2010-03-01T09:36:00Z,27.6010,-82.7510,11.81,1111122 
COMPS,ioos:station:USF.COMPS:EGK:1,2010-03-01T09:42:00Z,27.6010,-82.7510,11.76,1111122 
COMPS,ioos:station:USF.COMPS:EGK:1,2010-03-01T09:48:00Z,27.6010,-82.7510,11.54,1111122 
COMPS,ioos:station:USF.COMPS:EGK:1,2010-03-01T09:54:00Z,27.6010,-82.7510,11.54,1111122 
COMPS,ioos:station:USF.COMPS:EGK:1,2010-03-01T10:00:00Z,27.6010,-82.7510,11.55,1111122 
COMPS,ioos:station:USF.COMPS:EGK:1,2010-03-01T10:06:00Z,27.6010,-82.7510,11.51,1111122 
COMPS,ioos:station:USF.COMPS:EGK:1,2010-03-01T10:12:00Z,27.6010,-82.7510,11.61,1111122 
COMPS,ioos:station:USF.COMPS:EGK:1,2010-03-01T10:18:00Z,27.6010,-82.7510,11.65,1111122 
COMPS,ioos:station:USF.COMPS:EGK:1,2010-03-01T10:24:00Z,27.6010,-82.7510,11.5,1111122 
COMPS,ioos:station:USF.COMPS:EGK:1,2010-03-01T10:30:00Z,27.6010,-82.7510,11.53,1111122 
COMPS,ioos:station:USF.COMPS:EGK:1,2010-03-01T10:36:00Z,27.6010,-82.7510,11.69,1111122 
COMPS,ioos:station:USF.COMPS:EGK:1,2010-03-01T10:42:00Z,27.6010,-82.7510,11.83,1111122 
COMPS,ioos:station:USF.COMPS:EGK:1,2010-03-01T10:48:00Z,27.6010,-82.7510,11.89,1111122 
COMPS,ioos:station:USF.COMPS:EGK:1,2010-03-01T10:54:00Z,27.6010,-82.7510,12.09,1111122 
COMPS,ioos:station:USF.COMPS:EGK:1,2010-03-01T11:00:00Z,27.6010,-82.7510,12.0,1111122 
COMPS,ioos:station:USF.COMPS:EGK:1,2010-03-01T11:06:00Z,27.6010,-82.7510,11.99,1111122 
COMPS,ioos:station:USF.COMPS:EGK:1,2010-03-01T11:12:00Z,27.6010,-82.7510,11.99,1111122 
COMPS,ioos:station:USF.COMPS:EGK:1,2010-03-01T11:18:00Z,27.6010,-82.7510,11.88,1111122 
COMPS,ioos:station:USF.COMPS:EGK:1,2010-03-01T11:24:00Z,27.6010,-82.7510,11.85,1111122 
COMPS,ioos:station:USF.COMPS:EGK:1,2010-03-01T11:30:00Z,27.6010,-82.7510,11.97,1111122 
COMPS,ioos:station:USF.COMPS:EGK:1,2010-03-01T11:36:00Z,27.6010,-82.7510,11.99,1111122 
COMPS,ioos:station:USF.COMPS:EGK:1,2010-03-01T11:42:00Z,27.6010,-82.7510,11.98,1111122 
COMPS,ioos:station:USF.COMPS:EGK:1,2010-03-01T11:48:00Z,27.6010,-82.7510,11.91,1111122 
COMPS,ioos:station:USF.COMPS:EGK:1,2010-03-01T11:54:00Z,27.6010,-82.7510,11.91,1111122 
COMPS,ioos:station:USF.COMPS:EGK:1,2010-03-01T12:00:00Z,27.6010,-82.7510,12.0,1111122 
COMPS,ioos:station:USF.COMPS:EGK:1,2010-03-01T12:06:00Z,27.6010,-82.7510,11.96,1111122 
COMPS,ioos:station:USF.COMPS:EGK:1,2010-03-01T12:12:00Z,27.6010,-82.7510,12.11,1111122 
COMPS,ioos:station:USF.COMPS:EGK:1,2010-03-01T12:18:00Z,27.6010,-82.7510,12.44,1111122 
COMPS,ioos:station:USF.COMPS:EGK:1,2010-03-01T12:24:00Z,27.6010,-82.7510,12.67,1111122 
COMPS,ioos:station:USF.COMPS:EGK:1,2010-03-01T12:30:00Z,27.6010,-82.7510,12.61,1111122 
COMPS,ioos:station:USF.COMPS:EGK:1,2010-03-01T12:36:00Z,27.6010,-82.7510,12.52,1111122 
COMPS,ioos:station:USF.COMPS:EGK:1,2010-03-01T12:42:00Z,27.6010,-82.7510,12.55,1111122 
COMPS,ioos:station:USF.COMPS:EGK:1,2010-03-01T12:48:00Z,27.6010,-82.7510,12.66,1111122 
COMPS,ioos:station:USF.COMPS:EGK:1,2010-03-01T12:54:00Z,27.6010,-82.7510,12.83,1111122 
COMPS,ioos:station:USF.COMPS:EGK:1,2010-03-01T13:00:00Z,27.6010,-82.7510,12.83,1111122 
COMPS,ioos:station:USF.COMPS:EGK:1,2010-03-01T13:06:00Z,27.6010,-82.7510,12.94,1111122 
COMPS,ioos:station:USF.COMPS:EGK:1,2010-03-01T13:12:00Z,27.6010,-82.7510,12.96,1111122 
COMPS,ioos:station:USF.COMPS:EGK:1,2010-03-01T13:18:00Z,27.6010,-82.7510,12.96,1111122 
COMPS,ioos:station:USF.COMPS:EGK:1,2010-03-01T13:24:00Z,27.6010,-82.7510,13.11,1111122 
COMPS,ioos:station:USF.COMPS:EGK:1,2010-03-01T13:30:00Z,27.6010,-82.7510,13.15,1111122 
COMPS,ioos:station:USF.COMPS:EGK:1,2010-03-01T13:36:00Z,27.6010,-82.7510,13.4,1111122 
COMPS,ioos:station:USF.COMPS:EGK:1,2010-03-01T13:42:00Z,27.6010,-82.7510,13.49,1111122 
COMPS,ioos:station:USF.COMPS:EGK:1,2010-03-01T13:48:00Z,27.6010,-82.7510,13.31,1111122 
COMPS,ioos:station:USF.COMPS:EGK:1,2010-03-01T13:54:00Z,27.6010,-82.7510,13.6,1111122 
COMPS,ioos:station:USF.COMPS:EGK:1,2010-03-01T14:00:00Z,27.6010,-82.7510,13.68,1111122 
COMPS,ioos:station:USF.COMPS:EGK:1,2010-03-01T14:06:00Z,27.6010,-82.7510,13.77,1111122 
COMPS,ioos:station:USF.COMPS:EGK:1,2010-03-01T14:12:00Z,27.6010,-82.7510,12.96,1111122 
COMPS,ioos:station:USF.COMPS:EGK:1,2010-03-01T14:18:00Z,27.6010,-82.7510,12.85,1111122 
COMPS,ioos:station:USF.COMPS:EGK:1,2010-03-01T14:24:00Z,27.6010,-82.7510,12.94,1111122 
COMPS,ioos:station:USF.COMPS:EGK:1,2010-03-01T14:30:00Z,27.6010,-82.7510,12.89,1111122 
COMPS,ioos:station:USF.COMPS:EGK:1,2010-03-01T14:36:00Z,27.6010,-82.7510,12.94,1111122 
COMPS,ioos:station:USF.COMPS:EGK:1,2010-03-01T14:42:00Z,27.6010,-82.7510,13.28,1111122 
COMPS,ioos:station:USF.COMPS:EGK:1,2010-03-01T14:48:00Z,27.6010,-82.7510,13.26,1111122 
COMPS,ioos:station:USF.COMPS:EGK:1,2010-03-01T14:54:00Z,27.6010,-82.7510,13.48,1111122 
COMPS,ioos:station:USF.COMPS:EGK:1,2010-03-01T15:00:00Z,27.6010,-82.7510,13.04,1111122 
COMPS,ioos:station:USF.COMPS:EGK:1,2010-03-01T15:06:00Z,27.6010,-82.7510,13.01,1111122 
COMPS,ioos:station:USF.COMPS:EGK:1,2010-03-01T15:12:00Z,27.6010,-82.7510,12.93,1111122 
COMPS,ioos:station:USF.COMPS:EGK:1,2010-03-01T15:18:00Z,27.6010,-82.7510,12.99,1111122 
COMPS,ioos:station:USF.COMPS:EGK:1,2010-03-01T15:24:00Z,27.6010,-82.7510,13.37,1111122 
COMPS,ioos:station:USF.COMPS:EGK:1,2010-03-01T15:30:00Z,27.6010,-82.7510,13.14,1111122 
COMPS,ioos:station:USF.COMPS:EGK:1,2010-03-01T15:36:00Z,27.6010,-82.7510,13.24,1111122 
COMPS,ioos:station:USF.COMPS:EGK:1,2010-03-01T15:42:00Z,27.6010,-82.7510,13.61,1111122 
COMPS,ioos:station:USF.COMPS:EGK:1,2010-03-01T15:48:00Z,27.6010,-82.7510,13.45,1111122 
COMPS,ioos:station:USF.COMPS:EGK:1,2010-03-01T15:54:00Z,27.6010,-82.7510,13.75,1111122 
COMPS,ioos:station:USF.COMPS:EGK:1,2010-03-01T16:00:00Z,27.6010,-82.7510,14.02,1111122 
COMPS,ioos:station:USF.COMPS:EGK:1,2010-03-01T16:06:00Z,27.6010,-82.7510,13.59,1111122 
COMPS,ioos:station:USF.COMPS:EGK:1,2010-03-01T16:12:00Z,27.6010,-82.7510,14.06,1111122 
COMPS,ioos:station:USF.COMPS:EGK:1,2010-03-01T16:18:00Z,27.6010,-82.7510,13.8,1111122 
COMPS,ioos:station:USF.COMPS:EGK:1,2010-03-01T16:24:00Z,27.6010,-82.7510,13.38,1111122 
COMPS,ioos:station:USF.COMPS:EGK:1,2010-03-01T16:30:00Z,27.6010,-82.7510,13.64,1111122 
COMPS,ioos:station:USF.COMPS:EGK:1,2010-03-01T16:36:00Z,27.6010,-82.7510,13.58,1111122 
COMPS,ioos:station:USF.COMPS:EGK:1,2010-03-01T16:42:00Z,27.6010,-82.7510,13.65,1111122 
COMPS,ioos:station:USF.COMPS:EGK:1,2010-03-01T16:48:00Z,27.6010,-82.7510,13.83,1111122 
COMPS,ioos:station:USF.COMPS:EGK:1,2010-03-01T16:54:00Z,27.6010,-82.7510,13.71,1111122 
COMPS,ioos:station:USF.COMPS:EGK:1,2010-03-01T17:00:00Z,27.6010,-82.7510,13.84,1111122 
COMPS,ioos:station:USF.COMPS:EGK:1,2010-03-01T17:06:00Z,27.6010,-82.7510,13.96,1111122 
COMPS,ioos:station:USF.COMPS:EGK:1,2010-03-01T17:12:00Z,27.6010,-82.7510,14.19,1111122 
COMPS,ioos:station:USF.COMPS:EGK:1,2010-03-01T17:18:00Z,27.6010,-82.7510,13.7,1111122 
COMPS,ioos:station:USF.COMPS:EGK:1,2010-03-01T17:24:00Z,27.6010,-82.7510,13.98,1111122 
COMPS,ioos:station:USF.COMPS:EGK:1,2010-03-01T17:30:00Z,27.6010,-82.7510,14.16,1111122 
COMPS,ioos:station:USF.COMPS:EGK:1,2010-03-01T17:36:00Z,27.6010,-82.7510,13.78,1111122 
COMPS,ioos:station:USF.COMPS:EGK:1,2010-03-01T17:42:00Z,27.6010,-82.7510,14.05,1111122 
COMPS,ioos:station:USF.COMPS:EGK:1,2010-03-01T17:48:00Z,27.6010,-82.7510,13.56,1111122 
COMPS,ioos:station:USF.COMPS:EGK:1,2010-03-01T17:54:00Z,27.6010,-82.7510,14.33,1111122 
COMPS,ioos:station:USF.COMPS:EGK:1,2010-03-01T18:00:00Z,27.6010,-82.7510,14.68,1111122 
COMPS,ioos:station:USF.COMPS:EGK:1,2010-03-01T18:06:00Z,27.6010,-82.7510,14.58,1111122 
COMPS,ioos:station:USF.COMPS:EGK:1,2010-03-01T18:12:00Z,27.6010,-82.7510,14.52,1111122 
COMPS,ioos:station:USF.COMPS:EGK:1,2010-03-01T18:18:00Z,27.6010,-82.7510,14.7,1111122 
COMPS,ioos:station:USF.COMPS:EGK:1,2010-03-01T18:24:00Z,27.6010,-82.7510,14.66,1111122 
COMPS,ioos:station:USF.COMPS:EGK:1,2010-03-01T18:30:00Z,27.6010,-82.7510,15.06,1111122 
COMPS,ioos:station:USF.COMPS:EGK:1,2010-03-01T18:36:00Z,27.6010,-82.7510,15.01,1111122 
COMPS,ioos:station:USF.COMPS:EGK:1,2010-03-01T18:42:00Z,27.6010,-82.7510,14.88,1111122 
COMPS,ioos:station:USF.COMPS:EGK:1,2010-03-01T18:48:00Z,27.6010,-82.7510,15.29,1111122 
COMPS,ioos:station:USF.COMPS:EGK:1,2010-03-01T18:54:00Z,27.6010,-82.7510,15.84,1111122 
COMPS,ioos:station:USF.COMPS:EGK:1,2010-03-01T19:00:00Z,27.6010,-82.7510,15.69,1111122 
COMPS,ioos:station:USF.COMPS:EGK:1,2010-03-01T19:06:00Z,27.6010,-82.7510,15.37,1111122 
COMPS,ioos:station:USF.COMPS:EGK:1,2010-03-01T19:12:00Z,27.6010,-82.7510,14.54,1111122 
COMPS,ioos:station:USF.COMPS:EGK:1,2010-03-01T19:18:00Z,27.6010,-82.7510,14.75,1111122 
COMPS,ioos:station:USF.COMPS:EGK:1,2010-03-01T19:24:00Z,27.6010,-82.7510,14.91,1111122 
COMPS,ioos:station:USF.COMPS:EGK:1,2010-03-01T19:30:00Z,27.6010,-82.7510,15.51,1111122 
COMPS,ioos:station:USF.COMPS:EGK:1,2010-03-01T19:36:00Z,27.6010,-82.7510,15.4,1111122 
COMPS,ioos:station:USF.COMPS:EGK:1,2010-03-01T19:42:00Z,27.6010,-82.7510,15.47,1111122 
COMPS,ioos:station:USF.COMPS:EGK:1,2010-03-01T19:48:00Z,27.6010,-82.7510,15.5,1111122 
COMPS,ioos:station:USF.COMPS:EGK:1,2010-03-01T19:54:00Z,27.6010,-82.7510,15.7,1111122 
COMPS,ioos:station:USF.COMPS:EGK:1,2010-03-01T20:00:00Z,27.6010,-82.7510,15.52,1111122 
COMPS,ioos:station:USF.COMPS:EGK:1,2010-03-01T20:06:00Z,27.6010,-82.7510,15.39,1111122 
COMPS,ioos:station:USF.COMPS:EGK:1,2010-03-01T20:12:00Z,27.6010,-82.7510,15.27,1111122 
COMPS,ioos:station:USF.COMPS:EGK:1,2010-03-01T20:18:00Z,27.6010,-82.7510,15.19,1111122 
COMPS,ioos:station:USF.COMPS:EGK:1,2010-03-01T20:24:00Z,27.6010,-82.7510,15.22,1111122 
COMPS,ioos:station:USF.COMPS:EGK:1,2010-03-01T20:30:00Z,27.6010,-82.7510,15.2,1111122 
COMPS,ioos:station:USF.COMPS:EGK:1,2010-03-01T20:36:00Z,27.6010,-82.7510,15.44,1111122 
COMPS,ioos:station:USF.COMPS:EGK:1,2010-03-01T20:42:00Z,27.6010,-82.7510,15.39,1111122 
COMPS,ioos:station:USF.COMPS:EGK:1,2010-03-01T20:48:00Z,27.6010,-82.7510,14.93,1111122 
COMPS,ioos:station:USF.COMPS:EGK:1,2010-03-01T20:54:00Z,27.6010,-82.7510,14.69,1111122 
COMPS,ioos:station:USF.COMPS:EGK:1,2010-03-01T21:00:00Z,27.6010,-82.7510,14.98,1111122 
COMPS,ioos:station:USF.COMPS:EGK:1,2010-03-01T21:06:00Z,27.6010,-82.7510,14.96,1111122 
COMPS,ioos:station:USF.COMPS:EGK:1,2010-03-01T21:12:00Z,27.6010,-82.7510,14.83,1111122 
COMPS,ioos:station:USF.COMPS:EGK:1,2010-03-01T21:18:00Z,27.6010,-82.7510,14.99,1111122 
COMPS,ioos:station:USF.COMPS:EGK:1,2010-03-01T21:24:00Z,27.6010,-82.7510,15.3,1111122 
COMPS,ioos:station:USF.COMPS:EGK:1,2010-03-01T21:30:00Z,27.6010,-82.7510,15.23,1111122 
COMPS,ioos:station:USF.COMPS:EGK:1,2010-03-01T21:36:00Z,27.6010,-82.7510,14.79,1111122 
COMPS,ioos:station:USF.COMPS:EGK:1,2010-03-01T21:42:00Z,27.6010,-82.7510,14.75,1111122 
COMPS,ioos:station:USF.COMPS:EGK:1,2010-03-01T21:48:00Z,27.6010,-82.7510,14.58,1111122 
COMPS,ioos:station:USF.COMPS:EGK:1,2010-03-01T21:54:00Z,27.6010,-82.7510,14.59,1111122 
COMPS,ioos:station:USF.COMPS:EGK:1,2010-03-01T22:00:00Z,27.6010,-82.7510,14.35,1111122 
COMPS,ioos:station:USF.COMPS:EGK:1,2010-03-01T22:06:00Z,27.6010,-82.7510,14.36,1111122 
COMPS,ioos:station:USF.COMPS:EGK:1,2010-03-01T22:12:00Z,27.6010,-82.7510,14.52,1111122 
COMPS,ioos:station:USF.COMPS:EGK:1,2010-03-01T22:18:00Z,27.6010,-82.7510,14.47,1111122 
COMPS,ioos:station:USF.COMPS:EGK:1,2010-03-01T22:24:00Z,27.6010,-82.7510,14.34,1111122 
COMPS,ioos:station:USF.COMPS:EGK:1,2010-03-01T22:30:00Z,27.6010,-82.7510,14.44,1111122 
COMPS,ioos:station:USF.COMPS:EGK:1,2010-03-01T22:36:00Z,27.6010,-82.7510,14.3,1111122 
COMPS,ioos:station:USF.COMPS:EGK:1,2010-03-01T22:42:00Z,27.6010,-82.7510,14.3,1111122 
COMPS,ioos:station:USF.COMPS:EGK:1,2010-03-01T22:48:00Z,27.6010,-82.7510,14.37,1111122 
COMPS,ioos:station:USF.COMPS:EGK:1,2010-03-01T22:54:00Z,27.6010,-82.7510,14.34,1111122 
COMPS,ioos:station:USF.COMPS:EGK:1,2010-03-01T23:00:00Z,27.6010,-82.7510,14.15,1111122 
COMPS,ioos:station:USF.COMPS:EGK:1,2010-03-01T23:06:00Z,27.6010,-82.7510,14.08,1111122 
COMPS,ioos:station:USF.COMPS:EGK:1,2010-03-01T23:12:00Z,27.6010,-82.7510,13.95,1111122 
COMPS,ioos:station:USF.COMPS:EGK:1,2010-03-01T23:18:00Z,27.6010,-82.7510,13.73,1111122 
COMPS,ioos:station:USF.COMPS:EGK:1,2010-03-01T23:24:00Z,27.6010,-82.7510,13.37,1111122 
COMPS,ioos:station:USF.COMPS:EGK:1,2010-03-01T23:30:00Z,27.6010,-82.7510,13.18,1111122 
COMPS,ioos:station:USF.COMPS:EGK:1,2010-03-01T23:36:00Z,27.6010,-82.7510,12.96,1111122 
COMPS,ioos:station:USF.COMPS:EGK:1,2010-03-01T23:42:00Z,27.6010,-82.7510,12.91,1111122 
COMPS,ioos:station:USF.COMPS:EGK:1,2010-03-01T23:48:00Z,27.6010,-82.7510,13.04,1111122 
COMPS,ioos:station:USF.COMPS:EGK:1,2010-03-01T23:54:00Z,27.6010,-82.7510,13.0,1111122 
COMPS,ioos:station:USF.COMPS:EGK:1,2010-03-02T00:00:00Z,27.6010,-82.7510,12.84,1111122 
COMPS,ioos:station:USF.COMPS:EGK:1,2010-03-02T00:06:00Z,27.6010,-82.7510,12.74,1111122 
COMPS,ioos:station:USF.COMPS:EGK:1,2010-03-02T00:12:00Z,27.6010,-82.7510,12.73,1111122 
COMPS,ioos:station:USF.COMPS:EGK:1,2010-03-02T00:18:00Z,27.6010,-82.7510,12.72,1111122 
COMPS,ioos:station:USF.COMPS:EGK:1,2010-03-02T00:24:00Z,27.6010,-82.7510,12.69,1111122 
COMPS,ioos:station:USF.COMPS:EGK:1,2010-03-02T00:30:00Z,27.6010,-82.7510,12.66,1111122 
COMPS,ioos:station:USF.COMPS:EGK:1,2010-03-02T00:36:00Z,27.6010,-82.7510,12.63,1111122 
COMPS,ioos:station:USF.COMPS:EGK:1,2010-03-02T00:42:00Z,27.6010,-82.7510,12.68,1111122 
COMPS,ioos:station:USF.COMPS:EGK:1,2010-03-02T00:48:00Z,27.6010,-82.7510,12.83,1111122 
COMPS,ioos:station:USF.COMPS:EGK:1,2010-03-02T00:54:00Z,27.6010,-82.7510,13.06,1111122 
COMPS,ioos:station:USF.COMPS:EGK:1,2010-03-02T01:00:00Z,27.6010,-82.7510,12.94,1111122 
COMPS,ioos:station:USF.COMPS:EGK:1,2010-03-02T01:06:00Z,27.6010,-82.7510,12.5,1111122 
COMPS,ioos:station:USF.COMPS:EGK:1,2010-03-02T01:12:00Z,27.6010,-82.7510,12.48,1111122 
COMPS,ioos:station:USF.COMPS:EGK:1,2010-03-02T01:18:00Z,27.6010,-82.7510,12.48,1111122 
COMPS,ioos:station:USF.COMPS:EGK:1,2010-03-02T01:24:00Z,27.6010,-82.7510,12.39,1111122 
COMPS,ioos:station:USF.COMPS:EGK:1,2010-03-02T01:30:00Z,27.6010,-82.7510,12.5,1111122 
COMPS,ioos:station:USF.COMPS:EGK:1,2010-03-02T01:36:00Z,27.6010,-82.7510,12.65,1111122 
COMPS,ioos:station:USF.COMPS:EGK:1,2010-03-02T01:42:00Z,27.6010,-82.7510,12.72,1111122 
COMPS,ioos:station:USF.COMPS:EGK:1,2010-03-02T01:48:00Z,27.6010,-82.7510,12.58,1111122 
COMPS,ioos:station:USF.COMPS:EGK:1,2010-03-02T01:54:00Z,27.6010,-82.7510,12.53,1111122 
COMPS,ioos:station:USF.COMPS:EGK:1,2010-03-02T02:00:00Z,27.6010,-82.7510,12.5,1111122 
COMPS,ioos:station:USF.COMPS:EGK:1,2010-03-02T02:06:00Z,27.6010,-82.7510,12.56,1111122 
COMPS,ioos:station:USF.COMPS:EGK:1,2010-03-02T02:12:00Z,27.6010,-82.7510,12.65,1111122 
COMPS,ioos:station:USF.COMPS:EGK:1,2010-03-02T02:18:00Z,27.6010,-82.7510,12.75,1111122 
COMPS,ioos:station:USF.COMPS:EGK:1,2010-03-02T02:24:00Z,27.6010,-82.7510,12.78,1111122 
COMPS,ioos:station:USF.COMPS:EGK:1,2010-03-02T02:30:00Z,27.6010,-82.7510,12.81,1111122 
COMPS,ioos:station:USF.COMPS:EGK:1,2010-03-02T02:36:00Z,27.6010,-82.7510,12.79,1111122 
COMPS,ioos:station:USF.COMPS:EGK:1,2010-03-02T02:42:00Z,27.6010,-82.7510,12.79,1111122 
COMPS,ioos:station:USF.COMPS:EGK:1,2010-03-02T02:48:00Z,27.6010,-82.7510,13.03,1111122 
COMPS,ioos:station:USF.COMPS:EGK:1,2010-03-02T02:54:00Z,27.6010,-82.7510,13.28,1111122 
COMPS,ioos:station:USF.COMPS:EGK:1,2010-03-02T03:00:00Z,27.6010,-82.7510,13.44,1111122 
COMPS,ioos:station:USF.COMPS:EGK:1,2010-03-02T03:06:00Z,27.6010,-82.7510,13.66,1111122 